ENBNENST

Guest
Details From ENBN - Bronnoy
To ENST - Stokka
Flight Number -
Tags Routegen Generated
Created
Modified
Stats Distance 31 nm / 57 km
Max Altitude 100 ft / 30 m
Waypoints 5
Social Downloads 0
Likes 0
Share VATSIM

Download

Looking for another format? Having issues loading an existing format? Contact us
Advertisement - Login to hide

Notes

Departing runway 3 ENBN. Arriving runway 2 ENST.

Route

ENBN +65.52_+012.33 +65.70_+012.36 +65.89_+012.39 ENST

ID Type Via Altitude Latitude Longitude Leg Dist Tot Dist Heading (true) Name
O ENBN APT - 0 ft / 0 m 65.46411˚ 12.22325˚ - 0 nm - -
+65.52_+012.33 LATLON - 100 ft / 30 m 65.52033˚ 12.33309˚ 4 nm 4 nm 39° / 39° -
+65.70_+012.36 LATLON - 100 ft / 30 m 65.70351˚ 12.36143˚ 11 nm 15 nm 4° / 4° -
+65.89_+012.39 LATLON - 100 ft / 30 m 65.88670˚ 12.38976˚ 11 nm 26 nm 4° / 4° -
O ENST APT - 0 ft / 0 m 65.95243˚ 12.46396˚ 4 nm 30 nm 25° / 25° -

Altitude Profile

Advertisement - Login to hide

ENBN

Details ICAO ENBN (BNN)
Name BRONNOY
Region Norway
Timezone Unknown (UTC+0.0)
Stats Elevation 25 ft / 8 m (AMSL)
Location 65.459085° 12.213468°
Runways 1
Magnetic Variation 4.406° E

METAR

ENBN 220750Z 10003KT 050V120 9999 8000N VCFG FEW002 SCT005 BKN019 09/09 Q1024

Decode

TAF

Not found

Departure Runways

ID Width Length Bearing (true) Bearing (mag) Surface Threshold Offset Overrun Length
04 98 ft / 30 m 4,715 ft / 1,437 m 38.96° 34.55° Asphalt 387 ft / 118 m 0 ft / 0 m
22 98 ft / 30 m 4,715 ft / 1,437 m 218.97° 214.56° Asphalt 387 ft / 118 m 0 ft / 0 m

ENST

Details ICAO ENST (SSJ)
Name STOKKA
Region Norway
Timezone Europe/Oslo (UTC+2.0)
Stats Elevation 56 ft / 17 m (AMSL)
Location 65.956843° 12.468965°
Runways 1
Magnetic Variation 4.597° E

METAR

ENST 220750Z 22005KT 9999 FEW006 BKN012 09/07 Q1023 RMK WIND 300FT 23005KT

Decode

TAF

Not found

Destination Runways

ID Width Length Bearing (true) Bearing (mag) Surface Threshold Offset Overrun Length
03 98 ft / 30 m 3,551 ft / 1,082 m 24.76° 20.16° Asphalt 161 ft / 49 m 0 ft / 0 m
21 98 ft / 30 m 3,551 ft / 1,082 m 204.77° 200.17° Asphalt 177 ft / 54 m 0 ft / 0 m

Approach Navaids

Runway Type Ident Frequency Range Bearing (true) Bearing (mag) Slope Elevation
21 Localiser ST 109.90 MHz 18 nm / 33 km 198.13° 193.54° - 56 ft / 17 m (AMSL)

Popular Alternatives